Location: Cluj-Napoca
(46.7712°N, 23.6236°E)
Time: 07:51:36
(UTC+02:00)

ISS - Pass Details

Date: 01 February 2021
Orbit: 417 x 422 km, 51.6° (Epoch: 08 March)

Event Time Altitude Azimuth Distance (km) Brightness Sun altitude
Rises 18:18:13 0° 293° (WNW) 2,375 1.0 -8.7°
Reaches altitude 10° 18:20:23 10° 300° (WNW) 1,510 -0.2 -9.1°
Maximum altitude 18:23:40 46° 15° (NNE) 580 -3.3 -9.6°
Enters shadow 18:26:17 15° 87° (E) 1,255 -2.0 -10.1°
